Погода в Пангкоре

Малайзия     4°12′41″N   100°34′28″E
темп.,
°C
ветер,
м/с
пор.,
м/с
влажн.,
%
обл.,
%
осадки,
мм/ч
давл.,
гПа
погр.,
м
18 апреля, вс
вс1823:00+29зюз116994 0.1 1013720
02:00+28ссв1174100 0.5 1012366
05:00+27ссв227699 0.8 1011380
08:00+27ссв2278100 3.2 1012178
11:00+28ссз117497 1.0 1014474
14:00+28зсз237195 1.0 1011708
17:00+29зсз3367100 0.0 1009655
20:00+29зсз4468100 0.0 1010595
19 апреля, пн
пн1923:00+29сз3469100 0.0 1012623
02:00+28с3373100 0.3 1011570
05:00+28ссз3377100 0.9 1010399
08:00+28с2276100 1.3 1011437
11:00+28с127473 0.1 1012509
14:00+29сз4471100 0.1 1010768
17:00+29зсз556795 0.0 1008726
20:00+29ссз667124 0.0 1010841
20 апреля, вт
вт2023:00+29ссз677255 0.0 1011764
02:00+28ссз6777100 1.4 1010542
05:00+28ссз567698 1.1 1009645
08:00+28с5674100 1.8 1011671
11:00+28ссз5573100 0.0 1012669
14:00+28ссз6676100 0.0 1010599
17:00+29сз7774100 0.0 1008648
20:00+29сз7875100 0.0 1009618
21 апреля, ср
ср2123:00+29ссз6673100 0.0 1011587
02:00+28ссз6776100 1.2 1010582
05:00+28с5576100 2.4 1009476
08:00+27св337866 3.9 1010296
11:00+28с337469 0.9 1012350
14:00+29сз5570100 2.5 1010492
17:00+29сз777054 0.0 1008700
20:00+29ссз7871100 0.0 1010830
22 апреля, чт
чт2223:00+29ссз6773100 0.1 1011781
02:00+28ссз5574100 3.4 1010461
05:00+28ссз5672100 2.1 1009657
08:00+28ссз6774100 4.8 1010696
11:00+28с5671100 4.0 1012497
14:00+29сз6772100 5.2 1010670
17:00+29сз7871100 0.0 1008868
20:00+29ссз8974100 0.0 1009881